User: anonymous
Location: Walnut Point State Park
(39.6958°N, 88.0345°W)
Time: 05:00:41
(UTC-05:00)
Language:

ATLAS 3B R/B - Orbit

View from above orbital plane
View from above orbital plane
View from above satellite
View from above satellite

Ground track
Ground track

The orbit data is extracted from the following two-line orbital elements,

1 28538U 05004B   14091.89400109 0.00000150  00000-0  22762-3 0    02
2 28538  63.8150  12.7335 0219000 246.9927 113.0073 13.43017832    00
Epoch (UTC): 01 April 2014 21:27:21
Eccentricity: 0.0219000
inclination: 63.8150°
perigee height: 934 km
apogee height: 1262 km
right ascension of ascending node: 12.7335°
argument of perigee: 246.9927°
revolutions per day: 13.43017832
mean anomaly at epoch: 113.0073°
orbit number at epoch: 0

The dashed part of the orbit path shows where the satellite is in the earth's shadow,  

DLR